Pit Above Pit 1 Powerhouse [ USA-CAL ]

Edit Gauge

Current Conditions

Reading of "n/a" = frozen gauge or gauge error.
Reading Trend Type Updated
too low 0.0 r.c./hr Status 01h43m
570 cfs 26 cfs/hr Flow 01h43m

Station Description

AW Gauge ID: 48900
Source: dream
Station: 035
Enabled yes
AW thanks Chris Shackleton and Dreamflows for this data. Dreamflows data should only be analyzed in the context of the Dreamflows site. Data is often calculated and/or approximated. Please see Chris's site for a complete description of how this data should and can be interpreted. Source Gauge's Page

Information

Flow

Gauge History

Times listed in GMT 24h, ET and PT hours provided for convenience Graphs in GMT. Readings of "n/a" constitute a frozen gauge or gauge error.
Reading Updated (GMT) Eastern Pacific Comment
570.00 09/21/2017 16:00:00 Sep 21 12:00 pm Sep 21 9:00 am
543.00 09/21/2017 14:58:08 Sep 21 10:58 am Sep 21 7:58 am
467.00 09/21/2017 13:58:24 Sep 21 09:58 am Sep 21 6:58 am
437.00 09/21/2017 12:58:40 Sep 21 08:58 am Sep 21 5:58 am
128.00 09/21/2017 11:58:56 Sep 21 07:58 am Sep 21 4:58 am
448.00 09/21/2017 10:59:12 Sep 21 06:59 am Sep 21 3:59 am
467.00 09/21/2017 09:59:28 Sep 21 05:59 am Sep 21 2:59 am
458.00 09/21/2017 08:59:44 Sep 21 04:59 am Sep 21 1:59 am
474.00 09/21/2017 08:00:00 Sep 21 04:00 am Sep 21 1:00 am
437.00 09/21/2017 03:58:56 Sep 20 11:58 pm Sep 20 8:58 pm
446.00 09/21/2017 02:59:12 Sep 20 10:59 pm Sep 20 7:59 pm
411.00 09/21/2017 01:59:28 Sep 20 09:59 pm Sep 20 6:59 pm
161.00 09/21/2017 00:59:44 Sep 20 08:59 pm Sep 20 5:59 pm
455.00 09/21/2017 00:00:00 Sep 20 08:00 pm Sep 20 5:00 pm
134.00 09/20/2017 22:58:08 Sep 20 06:58 pm Sep 20 3:58 pm
447.00 09/20/2017 21:58:24 Sep 20 05:58 pm Sep 20 2:58 pm
448.00 09/20/2017 20:58:40 Sep 20 04:58 pm Sep 20 1:58 pm
448.00 09/20/2017 19:58:56 Sep 20 03:58 pm Sep 20 12:58 pm
420.00 09/20/2017 18:59:12 Sep 20 02:59 pm Sep 20 11:59 am
481.00 09/20/2017 17:59:28 Sep 20 01:59 pm Sep 20 10:59 am
574.00 09/20/2017 16:59:44 Sep 20 12:59 pm Sep 20 9:59 am
598.00 09/20/2017 16:00:00 Sep 20 12:00 pm Sep 20 9:00 am
605.00 09/20/2017 14:58:08 Sep 20 10:58 am Sep 20 7:58 am
475.00 09/20/2017 13:58:24 Sep 20 09:58 am Sep 20 6:58 am
487.00 09/20/2017 12:58:40 Sep 20 08:58 am Sep 20 5:58 am
408.00 09/20/2017 11:58:56 Sep 20 07:58 am Sep 20 4:58 am
429.00 09/20/2017 10:59:12 Sep 20 06:59 am Sep 20 3:59 am
485.00 09/20/2017 09:59:28 Sep 20 05:59 am Sep 20 2:59 am
455.00 09/20/2017 08:59:44 Sep 20 04:59 am Sep 20 1:59 am
463.00 09/20/2017 08:00:00 Sep 20 04:00 am Sep 20 1:00 am
350.00 09/20/2017 00:00:00 Sep 19 08:00 pm Sep 19 5:00 pm
265.00 09/19/2017 22:58:08 Sep 19 06:58 pm Sep 19 3:58 pm
262.00 09/19/2017 21:58:24 Sep 19 05:58 pm Sep 19 2:58 pm
459.00 09/19/2017 20:58:40 Sep 19 04:58 pm Sep 19 1:58 pm
472.00 09/19/2017 19:58:56 Sep 19 03:58 pm Sep 19 12:58 pm
478.00 09/19/2017 18:59:12 Sep 19 02:59 pm Sep 19 11:59 am
454.00 09/19/2017 17:59:28 Sep 19 01:59 pm Sep 19 10:59 am
578.00 09/19/2017 16:59:44 Sep 19 12:59 pm Sep 19 9:59 am
596.00 09/19/2017 16:00:00 Sep 19 12:00 pm Sep 19 9:00 am
560.00 09/19/2017 14:58:08 Sep 19 10:58 am Sep 19 7:58 am
472.00 09/19/2017 13:58:24 Sep 19 09:58 am Sep 19 6:58 am
446.00 09/19/2017 12:58:40 Sep 19 08:58 am Sep 19 5:58 am
459.00 09/19/2017 11:58:56 Sep 19 07:58 am Sep 19 4:58 am
269.00 09/19/2017 10:59:12 Sep 19 06:59 am Sep 19 3:59 am
477.00 09/19/2017 09:59:28 Sep 19 05:59 am Sep 19 2:59 am
478.00 09/19/2017 08:59:44 Sep 19 04:59 am Sep 19 1:59 am
486.00 09/19/2017 08:00:00 Sep 19 04:00 am Sep 19 1:00 am
499.00 09/19/2017 06:58:08 Sep 19 02:58 am Sep 18 11:58 pm
442.00 09/19/2017 03:58:56 Sep 18 11:58 pm Sep 18 8:58 pm
456.00 09/19/2017 02:59:12 Sep 18 10:59 pm Sep 18 7:59 pm
444.00 09/19/2017 01:59:28 Sep 18 09:59 pm Sep 18 6:59 pm
457.00 09/19/2017 00:59:44 Sep 18 08:59 pm Sep 18 5:59 pm
149.00 09/19/2017 00:00:00 Sep 18 08:00 pm Sep 18 5:00 pm
431.00 09/18/2017 22:58:08 Sep 18 06:58 pm Sep 18 3:58 pm
121.00 09/18/2017 21:58:24 Sep 18 05:58 pm Sep 18 2:58 pm
467.00 09/18/2017 20:58:40 Sep 18 04:58 pm Sep 18 1:58 pm
456.00 09/18/2017 19:58:56 Sep 18 03:58 pm Sep 18 12:58 pm
447.00 09/18/2017 18:59:12 Sep 18 02:59 pm Sep 18 11:59 am
449.00 09/18/2017 17:59:28 Sep 18 01:59 pm Sep 18 10:59 am
553.00 09/18/2017 16:59:44 Sep 18 12:59 pm Sep 18 9:59 am
469.00 09/18/2017 16:00:00 Sep 18 12:00 pm Sep 18 9:00 am
534.00 09/18/2017 14:58:08 Sep 18 10:58 am Sep 18 7:58 am
389.00 09/18/2017 13:58:24 Sep 18 09:58 am Sep 18 6:58 am
148.00 09/18/2017 12:58:40 Sep 18 08:58 am Sep 18 5:58 am
433.00 09/18/2017 11:58:56 Sep 18 07:58 am Sep 18 4:58 am
461.00 09/18/2017 10:59:12 Sep 18 06:59 am Sep 18 3:59 am
473.00 09/18/2017 09:59:28 Sep 18 05:59 am Sep 18 2:59 am
460.00 09/18/2017 08:59:44 Sep 18 04:59 am Sep 18 1:59 am
469.00 09/18/2017 08:00:00 Sep 18 04:00 am Sep 18 1:00 am
258.00 09/18/2017 06:58:08 Sep 18 02:58 am Sep 17 11:58 pm
522.00 09/18/2017 03:58:56 Sep 17 11:58 pm Sep 17 8:58 pm
441.00 09/18/2017 02:59:12 Sep 17 10:59 pm Sep 17 7:59 pm
433.00 09/18/2017 01:59:28 Sep 17 09:59 pm Sep 17 6:59 pm
443.00 09/18/2017 00:59:44 Sep 17 08:59 pm Sep 17 5:59 pm
304.00 09/17/2017 22:58:08 Sep 17 06:58 pm Sep 17 3:58 pm
476.00 09/17/2017 20:58:40 Sep 17 04:58 pm Sep 17 1:58 pm
448.00 09/17/2017 19:58:56 Sep 17 03:58 pm Sep 17 12:58 pm
439.00 09/17/2017 18:59:12 Sep 17 02:59 pm Sep 17 11:59 am
467.00 09/17/2017 17:59:28 Sep 17 01:59 pm Sep 17 10:59 am
456.00 09/17/2017 16:59:44 Sep 17 12:59 pm Sep 17 9:59 am
575.00 09/17/2017 16:00:00 Sep 17 12:00 pm Sep 17 9:00 am
577.00 09/17/2017 14:58:08 Sep 17 10:58 am Sep 17 7:58 am
570.00 09/17/2017 13:58:24 Sep 17 09:58 am Sep 17 6:58 am
131.00 09/17/2017 12:58:40 Sep 17 08:58 am Sep 17 5:58 am
454.00 09/17/2017 11:58:56 Sep 17 07:58 am Sep 17 4:58 am
470.00 09/17/2017 10:59:12 Sep 17 06:59 am Sep 17 3:59 am
430.00 09/17/2017 09:59:28 Sep 17 05:59 am Sep 17 2:59 am
438.00 09/17/2017 08:59:44 Sep 17 04:59 am Sep 17 1:59 am
511.00 09/17/2017 08:00:00 Sep 17 04:00 am Sep 17 1:00 am
544.00 09/17/2017 03:58:56 Sep 16 11:58 pm Sep 16 8:58 pm
405.00 09/17/2017 02:59:12 Sep 16 10:59 pm Sep 16 7:59 pm
439.00 09/17/2017 01:59:28 Sep 16 09:59 pm Sep 16 6:59 pm
419.00 09/17/2017 00:59:44 Sep 16 08:59 pm Sep 16 5:59 pm
154.00 09/17/2017 00:00:00 Sep 16 08:00 pm Sep 16 5:00 pm
390.00 09/16/2017 22:58:08 Sep 16 06:58 pm Sep 16 3:58 pm
98.00 09/16/2017 21:58:24 Sep 16 05:58 pm Sep 16 2:58 pm
429.00 09/16/2017 20:58:40 Sep 16 04:58 pm Sep 16 1:58 pm
429.00 09/16/2017 19:58:56 Sep 16 03:58 pm Sep 16 12:58 pm
424.00 09/16/2017 18:59:12 Sep 16 02:59 pm Sep 16 11:59 am
424.00 09/16/2017 17:59:28 Sep 16 01:59 pm Sep 16 10:59 am
431.00 09/16/2017 16:59:44 Sep 16 12:59 pm Sep 16 9:59 am
535.00 09/16/2017 16:00:00 Sep 16 12:00 pm Sep 16 9:00 am
508.00 09/16/2017 14:58:08 Sep 16 10:58 am Sep 16 7:58 am
469.00 09/16/2017 13:58:24 Sep 16 09:58 am Sep 16 6:58 am
459.00 09/16/2017 12:58:40 Sep 16 08:58 am Sep 16 5:58 am
407.00 09/16/2017 11:58:56 Sep 16 07:58 am Sep 16 4:58 am
446.00 09/16/2017 10:59:12 Sep 16 06:59 am Sep 16 3:59 am
450.00 09/16/2017 09:59:28 Sep 16 05:59 am Sep 16 2:59 am
467.00 09/16/2017 08:59:44 Sep 16 04:59 am Sep 16 1:59 am
529.00 09/16/2017 08:00:00 Sep 16 04:00 am Sep 16 1:00 am
523.00 09/16/2017 03:58:56 Sep 15 11:58 pm Sep 15 8:58 pm
439.00 09/16/2017 02:59:12 Sep 15 10:59 pm Sep 15 7:59 pm
427.00 09/16/2017 01:59:28 Sep 15 09:59 pm Sep 15 6:59 pm
408.00 09/16/2017 00:59:44 Sep 15 08:59 pm Sep 15 5:59 pm
400.00 09/16/2017 00:00:00 Sep 15 08:00 pm Sep 15 5:00 pm
221.00 09/15/2017 22:58:08 Sep 15 06:58 pm Sep 15 3:58 pm
475.00 09/15/2017 21:58:24 Sep 15 05:58 pm Sep 15 2:58 pm
122.00 09/15/2017 20:58:40 Sep 15 04:58 pm Sep 15 1:58 pm
448.00 09/15/2017 19:58:56 Sep 15 03:58 pm Sep 15 12:58 pm
465.00 09/15/2017 18:59:12 Sep 15 02:59 pm Sep 15 11:59 am
443.00 09/15/2017 17:59:28 Sep 15 01:59 pm Sep 15 10:59 am
458.00 09/15/2017 16:59:44 Sep 15 12:59 pm Sep 15 9:59 am
586.00 09/15/2017 16:00:00 Sep 15 12:00 pm Sep 15 9:00 am
486.00 09/15/2017 14:58:08 Sep 15 10:58 am Sep 15 7:58 am
529.00 09/15/2017 13:58:24 Sep 15 09:58 am Sep 15 6:58 am
134.00 09/15/2017 12:58:40 Sep 15 08:58 am Sep 15 5:58 am
460.00 09/15/2017 11:58:56 Sep 15 07:58 am Sep 15 4:58 am
449.00 09/15/2017 10:59:12 Sep 15 06:59 am Sep 15 3:59 am
436.00 09/15/2017 09:59:28 Sep 15 05:59 am Sep 15 2:59 am
529.00 09/15/2017 08:59:44 Sep 15 04:59 am Sep 15 1:59 am
484.00 09/15/2017 08:00:00 Sep 15 04:00 am Sep 15 1:00 am
406.00 09/15/2017 06:58:08 Sep 15 02:58 am Sep 14 11:58 pm
537.00 09/15/2017 03:58:56 Sep 14 11:58 pm Sep 14 8:58 pm
438.00 09/15/2017 02:59:12 Sep 14 10:59 pm Sep 14 7:59 pm
432.00 09/15/2017 01:59:28 Sep 14 09:59 pm Sep 14 6:59 pm
416.00 09/15/2017 00:59:44 Sep 14 08:59 pm Sep 14 5:59 pm
474.00 09/15/2017 00:00:00 Sep 14 08:00 pm Sep 14 5:00 pm
374.00 09/14/2017 22:58:08 Sep 14 06:58 pm Sep 14 3:58 pm
489.00 09/14/2017 21:58:24 Sep 14 05:58 pm Sep 14 2:58 pm
316.00 09/14/2017 20:58:40 Sep 14 04:58 pm Sep 14 1:58 pm
455.00 09/14/2017 19:58:56 Sep 14 03:58 pm Sep 14 12:58 pm
464.00 09/14/2017 18:59:12 Sep 14 02:59 pm Sep 14 11:59 am
665.00 09/14/2017 17:59:28 Sep 14 01:59 pm Sep 14 10:59 am
510.00 09/14/2017 16:59:44 Sep 14 12:59 pm Sep 14 9:59 am
510.00 09/14/2017 16:00:00 Sep 14 12:00 pm Sep 14 9:00 am
432.00 09/14/2017 14:58:08 Sep 14 10:58 am Sep 14 7:58 am
426.00 09/14/2017 13:58:24 Sep 14 09:58 am Sep 14 6:58 am
141.00 09/14/2017 12:58:40 Sep 14 08:58 am Sep 14 5:58 am
468.00 09/14/2017 11:58:56 Sep 14 07:58 am Sep 14 4:58 am
450.00 09/14/2017 10:59:12 Sep 14 06:59 am Sep 14 3:59 am
450.00 09/14/2017 09:59:28 Sep 14 05:59 am Sep 14 2:59 am
460.00 09/14/2017 08:59:44 Sep 14 04:59 am Sep 14 1:59 am
474.00 09/14/2017 08:00:00 Sep 14 04:00 am Sep 14 1:00 am
313.00 09/14/2017 06:58:08 Sep 14 02:58 am Sep 13 11:58 pm
406.00 09/14/2017 03:58:56 Sep 13 11:58 pm Sep 13 8:58 pm
444.00 09/14/2017 02:59:12 Sep 13 10:59 pm Sep 13 7:59 pm
444.00 09/14/2017 01:59:28 Sep 13 09:59 pm Sep 13 6:59 pm
435.00 09/14/2017 00:59:44 Sep 13 08:59 pm Sep 13 5:59 pm
398.00 09/14/2017 00:00:00 Sep 13 08:00 pm Sep 13 5:00 pm
198.00 09/13/2017 22:58:08 Sep 13 06:58 pm Sep 13 3:58 pm
232.00 09/13/2017 21:58:24 Sep 13 05:58 pm Sep 13 2:58 pm
473.00 09/13/2017 20:58:40 Sep 13 04:58 pm Sep 13 1:58 pm
447.00 09/13/2017 19:58:56 Sep 13 03:58 pm Sep 13 12:58 pm
469.00 09/13/2017 18:59:12 Sep 13 02:59 pm Sep 13 11:59 am
466.00 09/13/2017 17:59:28 Sep 13 01:59 pm Sep 13 10:59 am
466.00 09/13/2017 16:59:44 Sep 13 12:59 pm Sep 13 9:59 am
488.00 09/13/2017 16:00:00 Sep 13 12:00 pm Sep 13 9:00 am
556.00 09/13/2017 14:58:08 Sep 13 10:58 am Sep 13 7:58 am
449.00 09/13/2017 13:58:24 Sep 13 09:58 am Sep 13 6:58 am
396.00 09/13/2017 12:58:40 Sep 13 08:58 am Sep 13 5:58 am
83.00 09/13/2017 11:58:56 Sep 13 07:58 am Sep 13 4:58 am
429.00 09/13/2017 10:59:12 Sep 13 06:59 am Sep 13 3:59 am
457.00 09/13/2017 09:59:28 Sep 13 05:59 am Sep 13 2:59 am
442.00 09/13/2017 08:59:44 Sep 13 04:59 am Sep 13 1:59 am
560.00 09/13/2017 08:00:00 Sep 13 04:00 am Sep 13 1:00 am
585.00 09/13/2017 03:58:56 Sep 12 11:58 pm Sep 12 8:58 pm
452.00 09/13/2017 02:59:12 Sep 12 10:59 pm Sep 12 7:59 pm
454.00 09/13/2017 01:59:28 Sep 12 09:59 pm Sep 12 6:59 pm
435.00 09/13/2017 00:59:44 Sep 12 08:59 pm Sep 12 5:59 pm
448.00 09/13/2017 00:00:00 Sep 12 08:00 pm Sep 12 5:00 pm
264.00 09/12/2017 22:58:08 Sep 12 06:58 pm Sep 12 3:58 pm
343.00 09/12/2017 21:58:24 Sep 12 05:58 pm Sep 12 2:58 pm
418.00 09/12/2017 20:58:40 Sep 12 04:58 pm Sep 12 1:58 pm
486.00 09/12/2017 19:58:56 Sep 12 03:58 pm Sep 12 12:58 pm
484.00 09/12/2017 18:59:12 Sep 12 02:59 pm Sep 12 11:59 am
483.00 09/12/2017 17:59:28 Sep 12 01:59 pm Sep 12 10:59 am
307.00 09/12/2017 16:59:44 Sep 12 12:59 pm Sep 12 9:59 am
565.00 09/12/2017 16:00:00 Sep 12 12:00 pm Sep 12 9:00 am
463.00 09/12/2017 14:58:08 Sep 12 10:58 am Sep 12 7:58 am
443.00 09/12/2017 13:58:24 Sep 12 09:58 am Sep 12 6:58 am
452.00 09/12/2017 12:58:40 Sep 12 08:58 am Sep 12 5:58 am
117.00 09/12/2017 11:58:56 Sep 12 07:58 am Sep 12 4:58 am
463.00 09/12/2017 10:59:12 Sep 12 06:59 am Sep 12 3:59 am
431.00 09/12/2017 09:59:28 Sep 12 05:59 am Sep 12 2:59 am
461.00 09/12/2017 08:59:44 Sep 12 04:59 am Sep 12 1:59 am
535.00 09/12/2017 08:00:00 Sep 12 04:00 am Sep 12 1:00 am
550.00 09/12/2017 06:58:08 Sep 12 02:58 am Sep 11 11:58 pm
585.00 09/12/2017 03:58:56 Sep 11 11:58 pm Sep 11 8:58 pm
544.00 09/12/2017 02:59:12 Sep 11 10:59 pm Sep 11 7:59 pm
429.00 09/12/2017 01:59:28 Sep 11 09:59 pm Sep 11 6:59 pm
449.00 09/12/2017 00:59:44 Sep 11 08:59 pm Sep 11 5:59 pm
134.00 09/11/2017 22:58:08 Sep 11 06:58 pm Sep 11 3:58 pm
449.00 09/11/2017 21:58:24 Sep 11 05:58 pm Sep 11 2:58 pm
275.00 09/11/2017 20:58:40 Sep 11 04:58 pm Sep 11 1:58 pm
478.00 09/11/2017 19:58:56 Sep 11 03:58 pm Sep 11 12:58 pm
468.00 09/11/2017 18:59:12 Sep 11 02:59 pm Sep 11 11:59 am
472.00 09/11/2017 17:59:28 Sep 11 01:59 pm Sep 11 10:59 am
470.00 09/11/2017 16:59:44 Sep 11 12:59 pm Sep 11 9:59 am
497.00 09/11/2017 16:00:00 Sep 11 12:00 pm Sep 11 9:00 am
551.00 09/11/2017 14:58:08 Sep 11 10:58 am Sep 11 7:58 am
471.00 09/11/2017 13:58:24 Sep 11 09:58 am Sep 11 6:58 am
270.00 09/11/2017 12:58:40 Sep 11 08:58 am Sep 11 5:58 am
374.00 09/11/2017 11:58:56 Sep 11 07:58 am Sep 11 4:58 am
443.00 09/11/2017 10:59:12 Sep 11 06:59 am Sep 11 3:59 am
448.00 09/11/2017 09:59:28 Sep 11 05:59 am Sep 11 2:59 am
453.00 09/11/2017 08:59:44 Sep 11 04:59 am Sep 11 1:59 am
528.00 09/11/2017 08:00:00 Sep 11 04:00 am Sep 11 1:00 am
537.00 09/11/2017 03:58:56 Sep 10 11:58 pm Sep 10 8:58 pm
421.00 09/11/2017 02:59:12 Sep 10 10:59 pm Sep 10 7:59 pm
452.00 09/11/2017 01:59:28 Sep 10 09:59 pm Sep 10 6:59 pm
419.00 09/11/2017 00:59:44 Sep 10 08:59 pm Sep 10 5:59 pm
414.00 09/11/2017 00:00:00 Sep 10 08:00 pm Sep 10 5:00 pm
163.00 09/10/2017 22:58:08 Sep 10 06:58 pm Sep 10 3:58 pm
242.00 09/10/2017 21:58:24 Sep 10 05:58 pm Sep 10 2:58 pm
449.00 09/10/2017 20:58:40 Sep 10 04:58 pm Sep 10 1:58 pm
410.00 09/10/2017 19:58:56 Sep 10 03:58 pm Sep 10 12:58 pm
454.00 09/10/2017 18:59:12 Sep 10 02:59 pm Sep 10 11:59 am
460.00 09/10/2017 17:59:28 Sep 10 01:59 pm Sep 10 10:59 am
476.00 09/10/2017 16:59:44 Sep 10 12:59 pm Sep 10 9:59 am
427.00 09/10/2017 16:00:00 Sep 10 12:00 pm Sep 10 9:00 am
427.00 09/10/2017 14:58:08 Sep 10 10:58 am Sep 10 7:58 am
509.00 09/10/2017 13:58:24 Sep 10 09:58 am Sep 10 6:58 am
446.00 09/10/2017 12:58:40 Sep 10 08:58 am Sep 10 5:58 am
463.00 09/10/2017 11:58:56 Sep 10 07:58 am Sep 10 4:58 am
448.00 09/10/2017 10:59:12 Sep 10 06:59 am Sep 10 3:59 am
455.00 09/10/2017 09:59:28 Sep 10 05:59 am Sep 10 2:59 am
417.00 09/10/2017 08:59:44 Sep 10 04:59 am Sep 10 1:59 am
483.00 09/10/2017 08:00:00 Sep 10 04:00 am Sep 10 1:00 am
550.00 09/10/2017 03:58:56 Sep 9 11:58 pm Sep 9 8:58 pm
428.00 09/10/2017 01:59:28 Sep 9 09:59 pm Sep 9 6:59 pm
432.00 09/10/2017 00:59:44 Sep 9 08:59 pm Sep 9 5:59 pm
140.00 09/10/2017 00:00:00 Sep 9 08:00 pm Sep 9 5:00 pm
237.00 09/09/2017 22:58:08 Sep 9 06:58 pm Sep 9 3:58 pm
457.00 09/09/2017 21:58:24 Sep 9 05:58 pm Sep 9 2:58 pm
365.00 09/09/2017 20:58:40 Sep 9 04:58 pm Sep 9 1:58 pm
419.00 09/09/2017 19:58:56 Sep 9 03:58 pm Sep 9 12:58 pm
460.00 09/09/2017 18:59:12 Sep 9 02:59 pm Sep 9 11:59 am
477.00 09/09/2017 17:59:28 Sep 9 01:59 pm Sep 9 10:59 am
411.00 09/09/2017 16:59:44 Sep 9 12:59 pm Sep 9 9:59 am
453.00 09/09/2017 16:00:00 Sep 9 12:00 pm Sep 9 9:00 am
443.00 09/09/2017 14:58:08 Sep 9 10:58 am Sep 9 7:58 am
451.00 09/09/2017 13:58:24 Sep 9 09:58 am Sep 9 6:58 am
464.00 09/09/2017 12:58:40 Sep 9 08:58 am Sep 9 5:58 am
450.00 09/09/2017 11:58:56 Sep 9 07:58 am Sep 9 4:58 am
470.00 09/09/2017 10:59:12 Sep 9 06:59 am Sep 9 3:59 am
456.00 09/09/2017 09:59:28 Sep 9 05:59 am Sep 9 2:59 am
438.00 09/09/2017 08:59:44 Sep 9 04:59 am Sep 9 1:59 am
451.00 09/09/2017 08:00:00 Sep 9 04:00 am Sep 9 1:00 am
513.00 09/09/2017 03:58:56 Sep 8 11:58 pm Sep 8 8:58 pm
524.00 09/09/2017 02:59:12 Sep 8 10:59 pm Sep 8 7:59 pm
430.00 09/09/2017 01:59:28 Sep 8 09:59 pm Sep 8 6:59 pm
448.00 09/09/2017 00:59:44 Sep 8 08:59 pm Sep 8 5:59 pm
419.00 09/09/2017 00:00:00 Sep 8 08:00 pm Sep 8 5:00 pm
390.00 09/08/2017 22:58:08 Sep 8 06:58 pm Sep 8 3:58 pm
464.00 09/08/2017 21:58:24 Sep 8 05:58 pm Sep 8 2:58 pm
451.00 09/08/2017 20:58:40 Sep 8 04:58 pm Sep 8 1:58 pm
175.00 09/08/2017 19:58:56 Sep 8 03:58 pm Sep 8 12:58 pm
461.00 09/08/2017 18:59:12 Sep 8 02:59 pm Sep 8 11:59 am
442.00 09/08/2017 17:59:28 Sep 8 01:59 pm Sep 8 10:59 am
456.00 09/08/2017 16:59:44 Sep 8 12:59 pm Sep 8 9:59 am
557.00 09/08/2017 16:00:00 Sep 8 12:00 pm Sep 8 9:00 am
519.00 09/08/2017 14:58:08 Sep 8 10:58 am Sep 8 7:58 am
532.00 09/08/2017 13:58:24 Sep 8 09:58 am Sep 8 6:58 am
178.00 09/08/2017 12:58:40 Sep 8 08:58 am Sep 8 5:58 am
429.00 09/08/2017 11:58:56 Sep 8 07:58 am Sep 8 4:58 am
446.00 09/08/2017 10:59:12 Sep 8 06:59 am Sep 8 3:59 am
491.00 09/08/2017 09:59:28 Sep 8 05:59 am Sep 8 2:59 am
446.00 09/08/2017 08:59:44 Sep 8 04:59 am Sep 8 1:59 am
438.00 09/08/2017 08:00:00 Sep 8 04:00 am Sep 8 1:00 am
549.00 09/08/2017 03:58:56 Sep 7 11:58 pm Sep 7 8:58 pm
447.00 09/08/2017 02:59:12 Sep 7 10:59 pm Sep 7 7:59 pm
409.00 09/08/2017 01:59:28 Sep 7 09:59 pm Sep 7 6:59 pm
442.00 09/08/2017 00:59:44 Sep 7 08:59 pm Sep 7 5:59 pm
206.00 09/08/2017 00:00:00 Sep 7 08:00 pm Sep 7 5:00 pm
432.00 09/07/2017 22:58:08 Sep 7 06:58 pm Sep 7 3:58 pm
398.00 09/07/2017 21:58:24 Sep 7 05:58 pm Sep 7 2:58 pm
291.00 09/07/2017 20:58:40 Sep 7 04:58 pm Sep 7 1:58 pm
294.00 09/07/2017 19:58:56 Sep 7 03:58 pm Sep 7 12:58 pm
435.00 09/07/2017 18:59:12 Sep 7 02:59 pm Sep 7 11:59 am
472.00 09/07/2017 17:59:28 Sep 7 01:59 pm Sep 7 10:59 am
461.00 09/07/2017 16:59:44 Sep 7 12:59 pm Sep 7 9:59 am
539.00 09/07/2017 16:00:00 Sep 7 12:00 pm Sep 7 9:00 am
526.00 09/07/2017 14:58:08 Sep 7 10:58 am Sep 7 7:58 am
468.00 09/07/2017 13:58:24 Sep 7 09:58 am Sep 7 6:58 am
467.00 09/07/2017 12:58:40 Sep 7 08:58 am Sep 7 5:58 am
238.00 09/07/2017 11:58:56 Sep 7 07:58 am Sep 7 4:58 am
434.00 09/07/2017 10:59:12 Sep 7 06:59 am Sep 7 3:59 am
444.00 09/07/2017 09:59:28 Sep 7 05:59 am Sep 7 2:59 am
701.00 09/07/2017 08:59:44 Sep 7 04:59 am Sep 7 1:59 am
495.00 09/07/2017 08:00:00 Sep 7 04:00 am Sep 7 1:00 am

Status

Gauge History

Times listed in GMT 24h, ET and PT hours provided for convenience Graphs in GMT. Readings of "n/a" constitute a frozen gauge or gauge error.
Reading Updated (GMT) Eastern Pacific Comment
too low 09/21/2017 16:00:00 Sep 21 12:00 pm Sep 21 9:00 am
too low 09/21/2017 14:58:08 Sep 21 10:58 am Sep 21 7:58 am
too low 09/21/2017 13:58:24 Sep 21 09:58 am Sep 21 6:58 am
too low 09/21/2017 12:58:40 Sep 21 08:58 am Sep 21 5:58 am
too low 09/21/2017 10:59:12 Sep 21 06:59 am Sep 21 3:59 am
too low 09/21/2017 09:59:28 Sep 21 05:59 am Sep 21 2:59 am
too low 09/21/2017 08:59:44 Sep 21 04:59 am Sep 21 1:59 am
too low 09/21/2017 08:00:00 Sep 21 04:00 am Sep 21 1:00 am
too low 09/21/2017 03:58:56 Sep 20 11:58 pm Sep 20 8:58 pm
too low 09/21/2017 02:59:12 Sep 20 10:59 pm Sep 20 7:59 pm
too low 09/21/2017 01:59:28 Sep 20 09:59 pm Sep 20 6:59 pm
too low 09/21/2017 00:59:44 Sep 20 08:59 pm Sep 20 5:59 pm
too low 09/20/2017 22:58:08 Sep 20 06:58 pm Sep 20 3:58 pm
too low 09/20/2017 21:58:24 Sep 20 05:58 pm Sep 20 2:58 pm
too low 09/20/2017 20:58:40 Sep 20 04:58 pm Sep 20 1:58 pm
too low 09/20/2017 19:58:56 Sep 20 03:58 pm Sep 20 12:58 pm
too low 09/20/2017 18:59:12 Sep 20 02:59 pm Sep 20 11:59 am
too low 09/20/2017 17:59:28 Sep 20 01:59 pm Sep 20 10:59 am
too low 09/20/2017 16:59:44 Sep 20 12:59 pm Sep 20 9:59 am
too low 09/20/2017 16:00:00 Sep 20 12:00 pm Sep 20 9:00 am
running 09/20/2017 14:58:08 Sep 20 10:58 am Sep 20 7:58 am
too low 09/20/2017 13:58:24 Sep 20 09:58 am Sep 20 6:58 am
too low 09/20/2017 12:58:40 Sep 20 08:58 am Sep 20 5:58 am
too low 09/20/2017 11:58:56 Sep 20 07:58 am Sep 20 4:58 am
too low 09/20/2017 10:59:12 Sep 20 06:59 am Sep 20 3:59 am
too low 09/20/2017 08:59:44 Sep 20 04:59 am Sep 20 1:59 am
too low 09/20/2017 08:00:00 Sep 20 04:00 am Sep 20 1:00 am
too low 09/20/2017 00:00:00 Sep 19 08:00 pm Sep 19 5:00 pm
too low 09/19/2017 22:58:08 Sep 19 06:58 pm Sep 19 3:58 pm
too low 09/19/2017 21:58:24 Sep 19 05:58 pm Sep 19 2:58 pm
too low 09/19/2017 20:58:40 Sep 19 04:58 pm Sep 19 1:58 pm
too low 09/19/2017 19:58:56 Sep 19 03:58 pm Sep 19 12:58 pm
too low 09/19/2017 18:59:12 Sep 19 02:59 pm Sep 19 11:59 am
too low 09/19/2017 17:59:28 Sep 19 01:59 pm Sep 19 10:59 am
too low 09/19/2017 16:59:44 Sep 19 12:59 pm Sep 19 9:59 am
too low 09/19/2017 16:00:00 Sep 19 12:00 pm Sep 19 9:00 am
too low 09/19/2017 14:58:08 Sep 19 10:58 am Sep 19 7:58 am
too low 09/19/2017 13:58:24 Sep 19 09:58 am Sep 19 6:58 am
too low 09/19/2017 12:58:40 Sep 19 08:58 am Sep 19 5:58 am
too low 09/19/2017 11:58:56 Sep 19 07:58 am Sep 19 4:58 am
too low 09/19/2017 10:59:12 Sep 19 06:59 am Sep 19 3:59 am
too low 09/19/2017 09:59:28 Sep 19 05:59 am Sep 19 2:59 am
too low 09/19/2017 08:59:44 Sep 19 04:59 am Sep 19 1:59 am
too low 09/19/2017 06:58:08 Sep 19 02:58 am Sep 18 11:58 pm
too low 09/19/2017 03:58:56 Sep 18 11:58 pm Sep 18 8:58 pm
too low 09/19/2017 02:59:12 Sep 18 10:59 pm Sep 18 7:59 pm
too low 09/19/2017 01:59:28 Sep 18 09:59 pm Sep 18 6:59 pm
too low 09/19/2017 00:59:44 Sep 18 08:59 pm Sep 18 5:59 pm
too low 09/18/2017 22:58:08 Sep 18 06:58 pm Sep 18 3:58 pm
too low 09/18/2017 21:58:24 Sep 18 05:58 pm Sep 18 2:58 pm
too low 09/18/2017 20:58:40 Sep 18 04:58 pm Sep 18 1:58 pm
too low 09/18/2017 19:58:56 Sep 18 03:58 pm Sep 18 12:58 pm
too low 09/18/2017 18:59:12 Sep 18 02:59 pm Sep 18 11:59 am
too low 09/18/2017 17:59:28 Sep 18 01:59 pm Sep 18 10:59 am
too low 09/18/2017 16:59:44 Sep 18 12:59 pm Sep 18 9:59 am
too low 09/18/2017 16:00:00 Sep 18 12:00 pm Sep 18 9:00 am
too low 09/18/2017 14:58:08 Sep 18 10:58 am Sep 18 7:58 am
too low 09/18/2017 13:58:24 Sep 18 09:58 am Sep 18 6:58 am
too low 09/18/2017 12:58:40 Sep 18 08:58 am Sep 18 5:58 am
too low 09/18/2017 11:58:56 Sep 18 07:58 am Sep 18 4:58 am
too low 09/18/2017 10:59:12 Sep 18 06:59 am Sep 18 3:59 am
too low 09/18/2017 09:59:28 Sep 18 05:59 am Sep 18 2:59 am
too low 09/18/2017 08:59:44 Sep 18 04:59 am Sep 18 1:59 am
too low 09/18/2017 06:58:08 Sep 18 02:58 am Sep 17 11:58 pm
too low 09/18/2017 03:58:56 Sep 17 11:58 pm Sep 17 8:58 pm
too low 09/18/2017 02:59:12 Sep 17 10:59 pm Sep 17 7:59 pm
too low 09/18/2017 01:59:28 Sep 17 09:59 pm Sep 17 6:59 pm
too low 09/18/2017 00:59:44 Sep 17 08:59 pm Sep 17 5:59 pm
too low 09/17/2017 22:58:08 Sep 17 06:58 pm Sep 17 3:58 pm
too low 09/17/2017 20:58:40 Sep 17 04:58 pm Sep 17 1:58 pm
too low 09/17/2017 19:58:56 Sep 17 03:58 pm Sep 17 12:58 pm
too low 09/17/2017 18:59:12 Sep 17 02:59 pm Sep 17 11:59 am
too low 09/17/2017 17:59:28 Sep 17 01:59 pm Sep 17 10:59 am
too low 09/17/2017 16:59:44 Sep 17 12:59 pm Sep 17 9:59 am
too low 09/17/2017 16:00:00 Sep 17 12:00 pm Sep 17 9:00 am
too low 09/17/2017 14:58:08 Sep 17 10:58 am Sep 17 7:58 am
too low 09/17/2017 13:58:24 Sep 17 09:58 am Sep 17 6:58 am
too low 09/17/2017 12:58:40 Sep 17 08:58 am Sep 17 5:58 am
too low 09/17/2017 11:58:56 Sep 17 07:58 am Sep 17 4:58 am
too low 09/17/2017 10:59:12 Sep 17 06:59 am Sep 17 3:59 am
too low 09/17/2017 09:59:28 Sep 17 05:59 am Sep 17 2:59 am
too low 09/17/2017 08:59:44 Sep 17 04:59 am Sep 17 1:59 am
too low 09/17/2017 08:00:00 Sep 17 04:00 am Sep 17 1:00 am
too low 09/17/2017 03:58:56 Sep 16 11:58 pm Sep 16 8:58 pm
too low 09/17/2017 02:59:12 Sep 16 10:59 pm Sep 16 7:59 pm
too low 09/17/2017 01:59:28 Sep 16 09:59 pm Sep 16 6:59 pm
too low 09/17/2017 00:59:44 Sep 16 08:59 pm Sep 16 5:59 pm
too low 09/17/2017 00:00:00 Sep 16 08:00 pm Sep 16 5:00 pm
too low 09/16/2017 22:58:08 Sep 16 06:58 pm Sep 16 3:58 pm
too low 09/16/2017 21:58:24 Sep 16 05:58 pm Sep 16 2:58 pm
too low 09/16/2017 20:58:40 Sep 16 04:58 pm Sep 16 1:58 pm
too low 09/16/2017 19:58:56 Sep 16 03:58 pm Sep 16 12:58 pm
too low 09/16/2017 18:59:12 Sep 16 02:59 pm Sep 16 11:59 am
too low 09/16/2017 17:59:28 Sep 16 01:59 pm Sep 16 10:59 am
too low 09/16/2017 16:59:44 Sep 16 12:59 pm Sep 16 9:59 am
too low 09/16/2017 16:00:00 Sep 16 12:00 pm Sep 16 9:00 am
too low 09/16/2017 14:58:08 Sep 16 10:58 am Sep 16 7:58 am
too low 09/16/2017 13:58:24 Sep 16 09:58 am Sep 16 6:58 am
too low 09/16/2017 12:58:40 Sep 16 08:58 am Sep 16 5:58 am
too low 09/16/2017 11:58:56 Sep 16 07:58 am Sep 16 4:58 am
too low 09/16/2017 10:59:12 Sep 16 06:59 am Sep 16 3:59 am
too low 09/16/2017 09:59:28 Sep 16 05:59 am Sep 16 2:59 am
too low 09/16/2017 08:59:44 Sep 16 04:59 am Sep 16 1:59 am
too low 09/16/2017 08:00:00 Sep 16 04:00 am Sep 16 1:00 am
too low 09/16/2017 03:58:56 Sep 15 11:58 pm Sep 15 8:58 pm
too low 09/16/2017 02:59:12 Sep 15 10:59 pm Sep 15 7:59 pm
too low 09/16/2017 01:59:28 Sep 15 09:59 pm Sep 15 6:59 pm
too low 09/16/2017 00:59:44 Sep 15 08:59 pm Sep 15 5:59 pm
too low 09/16/2017 00:00:00 Sep 15 08:00 pm Sep 15 5:00 pm
too low 09/15/2017 22:58:08 Sep 15 06:58 pm Sep 15 3:58 pm
too low 09/15/2017 21:58:24 Sep 15 05:58 pm Sep 15 2:58 pm
too low 09/15/2017 20:58:40 Sep 15 04:58 pm Sep 15 1:58 pm
too low 09/15/2017 19:58:56 Sep 15 03:58 pm Sep 15 12:58 pm
too low 09/15/2017 18:59:12 Sep 15 02:59 pm Sep 15 11:59 am
too low 09/15/2017 17:59:28 Sep 15 01:59 pm Sep 15 10:59 am
too low 09/15/2017 16:59:44 Sep 15 12:59 pm Sep 15 9:59 am
too low 09/15/2017 16:00:00 Sep 15 12:00 pm Sep 15 9:00 am
too low 09/15/2017 14:58:08 Sep 15 10:58 am Sep 15 7:58 am
too low 09/15/2017 13:58:24 Sep 15 09:58 am Sep 15 6:58 am
too low 09/15/2017 12:58:40 Sep 15 08:58 am Sep 15 5:58 am
too low 09/15/2017 11:58:56 Sep 15 07:58 am Sep 15 4:58 am
too low 09/15/2017 10:59:12 Sep 15 06:59 am Sep 15 3:59 am
too low 09/15/2017 09:59:28 Sep 15 05:59 am Sep 15 2:59 am
too low 09/15/2017 08:59:44 Sep 15 04:59 am Sep 15 1:59 am
too low 09/15/2017 06:58:08 Sep 15 02:58 am Sep 14 11:58 pm
too low 09/15/2017 03:58:56 Sep 14 11:58 pm Sep 14 8:58 pm
too low 09/15/2017 02:59:12 Sep 14 10:59 pm Sep 14 7:59 pm
too low 09/15/2017 01:59:28 Sep 14 09:59 pm Sep 14 6:59 pm
too low 09/15/2017 00:59:44 Sep 14 08:59 pm Sep 14 5:59 pm
too low 09/15/2017 00:00:00 Sep 14 08:00 pm Sep 14 5:00 pm
too low 09/14/2017 22:58:08 Sep 14 06:58 pm Sep 14 3:58 pm
too low 09/14/2017 21:58:24 Sep 14 05:58 pm Sep 14 2:58 pm
too low 09/14/2017 20:58:40 Sep 14 04:58 pm Sep 14 1:58 pm
too low 09/14/2017 19:58:56 Sep 14 03:58 pm Sep 14 12:58 pm
too low 09/14/2017 18:59:12 Sep 14 02:59 pm Sep 14 11:59 am
running 09/14/2017 17:59:28 Sep 14 01:59 pm Sep 14 10:59 am
too low 09/14/2017 16:59:44 Sep 14 12:59 pm Sep 14 9:59 am
too low 09/14/2017 16:00:00 Sep 14 12:00 pm Sep 14 9:00 am
too low 09/14/2017 14:58:08 Sep 14 10:58 am Sep 14 7:58 am
too low 09/14/2017 13:58:24 Sep 14 09:58 am Sep 14 6:58 am
too low 09/14/2017 12:58:40 Sep 14 08:58 am Sep 14 5:58 am
too low 09/14/2017 11:58:56 Sep 14 07:58 am Sep 14 4:58 am
too low 09/14/2017 10:59:12 Sep 14 06:59 am Sep 14 3:59 am
too low 09/14/2017 09:59:28 Sep 14 05:59 am Sep 14 2:59 am
too low 09/14/2017 08:59:44 Sep 14 04:59 am Sep 14 1:59 am
too low 09/14/2017 06:58:08 Sep 14 02:58 am Sep 13 11:58 pm
too low 09/14/2017 03:58:56 Sep 13 11:58 pm Sep 13 8:58 pm
too low 09/14/2017 02:59:12 Sep 13 10:59 pm Sep 13 7:59 pm
too low 09/14/2017 01:59:28 Sep 13 09:59 pm Sep 13 6:59 pm
too low 09/14/2017 00:59:44 Sep 13 08:59 pm Sep 13 5:59 pm
too low 09/14/2017 00:00:00 Sep 13 08:00 pm Sep 13 5:00 pm
too low 09/13/2017 22:58:08 Sep 13 06:58 pm Sep 13 3:58 pm
too low 09/13/2017 21:58:24 Sep 13 05:58 pm Sep 13 2:58 pm
too low 09/13/2017 20:58:40 Sep 13 04:58 pm Sep 13 1:58 pm
too low 09/13/2017 19:58:56 Sep 13 03:58 pm Sep 13 12:58 pm
too low 09/13/2017 18:59:12 Sep 13 02:59 pm Sep 13 11:59 am
too low 09/13/2017 17:59:28 Sep 13 01:59 pm Sep 13 10:59 am
too low 09/13/2017 16:59:44 Sep 13 12:59 pm Sep 13 9:59 am
too low 09/13/2017 16:00:00 Sep 13 12:00 pm Sep 13 9:00 am
too low 09/13/2017 14:58:08 Sep 13 10:58 am Sep 13 7:58 am
too low 09/13/2017 13:58:24 Sep 13 09:58 am Sep 13 6:58 am
too low 09/13/2017 12:58:40 Sep 13 08:58 am Sep 13 5:58 am
too low 09/13/2017 11:58:56 Sep 13 07:58 am Sep 13 4:58 am
too low 09/13/2017 10:59:12 Sep 13 06:59 am Sep 13 3:59 am
too low 09/13/2017 09:59:28 Sep 13 05:59 am Sep 13 2:59 am
too low 09/13/2017 08:59:44 Sep 13 04:59 am Sep 13 1:59 am
too low 09/13/2017 08:00:00 Sep 13 04:00 am Sep 13 1:00 am
too low 09/13/2017 02:59:12 Sep 12 10:59 pm Sep 12 7:59 pm
too low 09/13/2017 01:59:28 Sep 12 09:59 pm Sep 12 6:59 pm
too low 09/13/2017 00:59:44 Sep 12 08:59 pm Sep 12 5:59 pm
too low 09/13/2017 00:00:00 Sep 12 08:00 pm Sep 12 5:00 pm
too low 09/12/2017 22:58:08 Sep 12 06:58 pm Sep 12 3:58 pm
too low 09/12/2017 21:58:24 Sep 12 05:58 pm Sep 12 2:58 pm
too low 09/12/2017 20:58:40 Sep 12 04:58 pm Sep 12 1:58 pm
too low 09/12/2017 19:58:56 Sep 12 03:58 pm Sep 12 12:58 pm
too low 09/12/2017 18:59:12 Sep 12 02:59 pm Sep 12 11:59 am
too low 09/12/2017 17:59:28 Sep 12 01:59 pm Sep 12 10:59 am
too low 09/12/2017 16:59:44 Sep 12 12:59 pm Sep 12 9:59 am
too low 09/12/2017 16:00:00 Sep 12 12:00 pm Sep 12 9:00 am
too low 09/12/2017 14:58:08 Sep 12 10:58 am Sep 12 7:58 am
too low 09/12/2017 13:58:24 Sep 12 09:58 am Sep 12 6:58 am
too low 09/12/2017 12:58:40 Sep 12 08:58 am Sep 12 5:58 am
too low 09/12/2017 11:58:56 Sep 12 07:58 am Sep 12 4:58 am
too low 09/12/2017 10:59:12 Sep 12 06:59 am Sep 12 3:59 am
too low 09/12/2017 09:59:28 Sep 12 05:59 am Sep 12 2:59 am
too low 09/12/2017 08:59:44 Sep 12 04:59 am Sep 12 1:59 am
too low 09/12/2017 06:58:08 Sep 12 02:58 am Sep 11 11:58 pm
too low 09/12/2017 03:58:56 Sep 11 11:58 pm Sep 11 8:58 pm
too low 09/12/2017 02:59:12 Sep 11 10:59 pm Sep 11 7:59 pm
too low 09/12/2017 01:59:28 Sep 11 09:59 pm Sep 11 6:59 pm
too low 09/12/2017 00:59:44 Sep 11 08:59 pm Sep 11 5:59 pm
too low 09/11/2017 22:58:08 Sep 11 06:58 pm Sep 11 3:58 pm
too low 09/11/2017 21:58:24 Sep 11 05:58 pm Sep 11 2:58 pm
too low 09/11/2017 20:58:40 Sep 11 04:58 pm Sep 11 1:58 pm
too low 09/11/2017 19:58:56 Sep 11 03:58 pm Sep 11 12:58 pm
too low 09/11/2017 18:59:12 Sep 11 02:59 pm Sep 11 11:59 am
too low 09/11/2017 17:59:28 Sep 11 01:59 pm Sep 11 10:59 am
too low 09/11/2017 16:59:44 Sep 11 12:59 pm Sep 11 9:59 am
too low 09/11/2017 16:00:00 Sep 11 12:00 pm Sep 11 9:00 am
too low 09/11/2017 14:58:08 Sep 11 10:58 am Sep 11 7:58 am
too low 09/11/2017 13:58:24 Sep 11 09:58 am Sep 11 6:58 am
too low 09/11/2017 12:58:40 Sep 11 08:58 am Sep 11 5:58 am
too low 09/11/2017 11:58:56 Sep 11 07:58 am Sep 11 4:58 am
too low 09/11/2017 10:59:12 Sep 11 06:59 am Sep 11 3:59 am
too low 09/11/2017 09:59:28 Sep 11 05:59 am Sep 11 2:59 am
too low 09/11/2017 08:59:44 Sep 11 04:59 am Sep 11 1:59 am
too low 09/11/2017 08:00:00 Sep 11 04:00 am Sep 11 1:00 am
too low 09/11/2017 03:58:56 Sep 10 11:58 pm Sep 10 8:58 pm
too low 09/11/2017 02:59:12 Sep 10 10:59 pm Sep 10 7:59 pm
too low 09/11/2017 01:59:28 Sep 10 09:59 pm Sep 10 6:59 pm
too low 09/11/2017 00:59:44 Sep 10 08:59 pm Sep 10 5:59 pm
too low 09/11/2017 00:00:00 Sep 10 08:00 pm Sep 10 5:00 pm
too low 09/10/2017 22:58:08 Sep 10 06:58 pm Sep 10 3:58 pm
too low 09/10/2017 21:58:24 Sep 10 05:58 pm Sep 10 2:58 pm
too low 09/10/2017 20:58:40 Sep 10 04:58 pm Sep 10 1:58 pm
too low 09/10/2017 19:58:56 Sep 10 03:58 pm Sep 10 12:58 pm
too low 09/10/2017 18:59:12 Sep 10 02:59 pm Sep 10 11:59 am
too low 09/10/2017 17:59:28 Sep 10 01:59 pm Sep 10 10:59 am
too low 09/10/2017 16:59:44 Sep 10 12:59 pm Sep 10 9:59 am
too low 09/10/2017 16:00:00 Sep 10 12:00 pm Sep 10 9:00 am
too low 09/10/2017 14:58:08 Sep 10 10:58 am Sep 10 7:58 am
too low 09/10/2017 13:58:24 Sep 10 09:58 am Sep 10 6:58 am
too low 09/10/2017 12:58:40 Sep 10 08:58 am Sep 10 5:58 am
too low 09/10/2017 11:58:56 Sep 10 07:58 am Sep 10 4:58 am
too low 09/10/2017 10:59:12 Sep 10 06:59 am Sep 10 3:59 am
too low 09/10/2017 09:59:28 Sep 10 05:59 am Sep 10 2:59 am
too low 09/10/2017 08:59:44 Sep 10 04:59 am Sep 10 1:59 am
too low 09/10/2017 08:00:00 Sep 10 04:00 am Sep 10 1:00 am
too low 09/10/2017 03:58:56 Sep 9 11:58 pm Sep 9 8:58 pm
too low 09/10/2017 01:59:28 Sep 9 09:59 pm Sep 9 6:59 pm
too low 09/10/2017 00:59:44 Sep 9 08:59 pm Sep 9 5:59 pm
too low 09/10/2017 00:00:00 Sep 9 08:00 pm Sep 9 5:00 pm
too low 09/09/2017 22:58:08 Sep 9 06:58 pm Sep 9 3:58 pm
too low 09/09/2017 21:58:24 Sep 9 05:58 pm Sep 9 2:58 pm
too low 09/09/2017 20:58:40 Sep 9 04:58 pm Sep 9 1:58 pm
too low 09/09/2017 19:58:56 Sep 9 03:58 pm Sep 9 12:58 pm
too low 09/09/2017 18:59:12 Sep 9 02:59 pm Sep 9 11:59 am
too low 09/09/2017 17:59:28 Sep 9 01:59 pm Sep 9 10:59 am
too low 09/09/2017 16:59:44 Sep 9 12:59 pm Sep 9 9:59 am
too low 09/09/2017 16:00:00 Sep 9 12:00 pm Sep 9 9:00 am
too low 09/09/2017 14:58:08 Sep 9 10:58 am Sep 9 7:58 am
too low 09/09/2017 13:58:24 Sep 9 09:58 am Sep 9 6:58 am
too low 09/09/2017 12:58:40 Sep 9 08:58 am Sep 9 5:58 am
too low 09/09/2017 11:58:56 Sep 9 07:58 am Sep 9 4:58 am
too low 09/09/2017 10:59:12 Sep 9 06:59 am Sep 9 3:59 am
too low 09/09/2017 09:59:28 Sep 9 05:59 am Sep 9 2:59 am
too low 09/09/2017 08:59:44 Sep 9 04:59 am Sep 9 1:59 am
too low 09/09/2017 08:00:00 Sep 9 04:00 am Sep 9 1:00 am
too low 09/09/2017 03:58:56 Sep 8 11:58 pm Sep 8 8:58 pm
too low 09/09/2017 02:59:12 Sep 8 10:59 pm Sep 8 7:59 pm
too low 09/09/2017 01:59:28 Sep 8 09:59 pm Sep 8 6:59 pm
too low 09/09/2017 00:59:44 Sep 8 08:59 pm Sep 8 5:59 pm
too low 09/08/2017 22:58:08 Sep 8 06:58 pm Sep 8 3:58 pm
too low 09/08/2017 21:58:24 Sep 8 05:58 pm Sep 8 2:58 pm
too low 09/08/2017 20:58:40 Sep 8 04:58 pm Sep 8 1:58 pm
too low 09/08/2017 18:59:12 Sep 8 02:59 pm Sep 8 11:59 am
too low 09/08/2017 17:59:28 Sep 8 01:59 pm Sep 8 10:59 am
too low 09/08/2017 16:59:44 Sep 8 12:59 pm Sep 8 9:59 am
too low 09/08/2017 14:58:08 Sep 8 10:58 am Sep 8 7:58 am
too low 09/08/2017 13:58:24 Sep 8 09:58 am Sep 8 6:58 am
too low 09/08/2017 12:58:40 Sep 8 08:58 am Sep 8 5:58 am
too low 09/08/2017 11:58:56 Sep 8 07:58 am Sep 8 4:58 am
too low 09/08/2017 10:59:12 Sep 8 06:59 am Sep 8 3:59 am
too low 09/08/2017 09:59:28 Sep 8 05:59 am Sep 8 2:59 am
too low 09/08/2017 08:59:44 Sep 8 04:59 am Sep 8 1:59 am
too low 09/08/2017 08:00:00 Sep 8 04:00 am Sep 8 1:00 am
too low 09/08/2017 03:58:56 Sep 7 11:58 pm Sep 7 8:58 pm
too low 09/08/2017 02:59:12 Sep 7 10:59 pm Sep 7 7:59 pm
too low 09/08/2017 01:59:28 Sep 7 09:59 pm Sep 7 6:59 pm
too low 09/08/2017 00:59:44 Sep 7 08:59 pm Sep 7 5:59 pm
too low 09/08/2017 00:00:00 Sep 7 08:00 pm Sep 7 5:00 pm
too low 09/07/2017 22:58:08 Sep 7 06:58 pm Sep 7 3:58 pm
too low 09/07/2017 21:58:24 Sep 7 05:58 pm Sep 7 2:58 pm
too low 09/07/2017 20:58:40 Sep 7 04:58 pm Sep 7 1:58 pm
too low 09/07/2017 19:58:56 Sep 7 03:58 pm Sep 7 12:58 pm
too low 09/07/2017 18:59:12 Sep 7 02:59 pm Sep 7 11:59 am
too low 09/07/2017 17:59:28 Sep 7 01:59 pm Sep 7 10:59 am
too low 09/07/2017 16:59:44 Sep 7 12:59 pm Sep 7 9:59 am
too low 09/07/2017 16:00:00 Sep 7 12:00 pm Sep 7 9:00 am
too low 09/07/2017 14:58:08 Sep 7 10:58 am Sep 7 7:58 am
too low 09/07/2017 13:58:24 Sep 7 09:58 am Sep 7 6:58 am
too low 09/07/2017 12:58:40 Sep 7 08:58 am Sep 7 5:58 am
too low 09/07/2017 11:58:56 Sep 7 07:58 am Sep 7 4:58 am
too low 09/07/2017 10:59:12 Sep 7 06:59 am Sep 7 3:59 am
too low 09/07/2017 09:59:28 Sep 7 05:59 am Sep 7 2:59 am
running 09/07/2017 08:59:44 Sep 7 04:59 am Sep 7 1:59 am
too low 09/07/2017 08:00:00 Sep 7 04:00 am Sep 7 1:00 am
too low 09/07/2017 03:58:56 Sep 6 11:58 pm Sep 6 8:58 pm
too low 09/07/2017 02:59:12 Sep 6 10:59 pm Sep 6 7:59 pm
too low 09/07/2017 01:59:28 Sep 6 09:59 pm Sep 6 6:59 pm
too low 09/07/2017 00:59:44 Sep 6 08:59 pm Sep 6 5:59 pm
too low 09/07/2017 00:00:00 Sep 6 08:00 pm Sep 6 5:00 pm
too low 09/06/2017 22:58:08 Sep 6 06:58 pm Sep 6 3:58 pm
too low 09/06/2017 21:58:24 Sep 6 05:58 pm Sep 6 2:58 pm
too low 09/06/2017 20:58:40 Sep 6 04:58 pm Sep 6 1:58 pm
too low 09/06/2017 18:59:12 Sep 6 02:59 pm Sep 6 11:59 am
too low 09/06/2017 16:59:44 Sep 6 12:59 pm Sep 6 9:59 am
too low 09/06/2017 14:58:08 Sep 6 10:58 am Sep 6 7:58 am
too low 09/06/2017 12:58:40 Sep 6 08:58 am Sep 6 5:58 am
too low 09/06/2017 11:58:56 Sep 6 07:58 am Sep 6 4:58 am

Report - Reports of Related Gauges

Reports give the public a chance to report on river conditions throughout the country as well as log the history of a river.

Reports

No Reports Filed

Linked Reaches

Click a heading to sort. Hover over a heading for help.
River Name/Section Class Level running? Updated
Pit [CA] 2) Pit 1: Fall River Mills to Pit River Campground (Pit Fall... III-IV ~ 570 cfs
+ 26 cfs/hr
L7-
Below Recom.
03h45m